Regional Weather Roundup
Issued by NWS

Home | Current Version | Previous Version | Graphics & Text | Print | Product List | Glossary On
Versions: 1 2 3 4 5 6 7 8 9 10 11 12 13 14 15 16 17 18 19 20 21 22 23 24 25 26 27 28 29 30 31 32 33 34 35 36 37 38 39 40 41 42 43 44 45 46 47 48 49 50
000
ASUS43 KMPX 311910
RWRMN
WEATHER ROUNDUP FOR MINNESOTA
NATIONAL WEATHER SERVICE TWIN CITIES/CHANHASSEN MN
100 PM CST SAT JAN 31 2015


NOTE: "FAIR" INDICATES FEW OR NO CLOUDS BELOW 12,000 FEET WITH NO
SIGNIFICANT WEATHER AND/OR OBSTRUCTIONS TO VISIBILITY. N/A MEANS
CURRENT SKY AND/OR WEATHER CONDITIONS ARE NOT AVAILABLE.

MNZ060>063-068>070-312000-
   Twin Cities Metro

CITY           SKY/WX    TMP DP  RH WIND       PRES   REMARKS
TWIN CITIES    CLOUDY    28  20  71 N13       30.20F WCI  17
ST PAUL        CLOUDY    29  20  69 N10       30.22S WCI  20
CRYSTAL        CLOUDY    29  19  66 N9        30.20F WCI  20
BLAINE         CLOUDY    28  21  74 N9        30.21S WCI  20
LAKEVILLE      CLOUDY    27  21  80 NE8       30.18S WCI  18
EDEN PRAIRIE   CLOUDY    29  21  72 NE9       30.19F WCI  20
SOUTH ST PAUL  CLOUDY    29  21  71 N6        30.20S WCI  23
LAKE ELMO      CLOUDY    28  21  74 N8        30.21S WCI  20
$$
MNZ001>005-007-008-013>017-022>024-027-028-312000-
   Northwest Minnesota

CITY           SKY/WX    TMP DP  RH WIND       PRES   REMARKS
BEMIDJI        MOSUNNY    7  -3  62 NW10      30.31R WCI  -7
HALLOCK        SUNNY     -2 -11  65 N18       30.49S WCI -24
ROSEAU         SUNNY      1  -9  60 N12       30.43F WCI -15
WARROAD        SUNNY      1  -9  60 N10       30.42F WCI -14
THIEF RVR FALL MOSUNNY    1  -9  60 N14       30.40S WCI -17
CROOKSTON      MOSUNNY    5  -6  61 N16G23    30.43S WCI -14
FOSSTON        SUNNY     10   3  72 N15       30.34F WCI  -6
DETROIT LAKES  SUNNY     18   1  49 NE8       30.28S WCI   7
MOORHEAD       SUNNY     14  -2  48 N17G25    30.35S WCI  -3
PARK RAPIDS    SUNNY     16  -7  35 N13       30.25F WCI   2
MAHNOMEN       FAIR      10  -3  56 NE15      30.31F WCI  -7
$$
MNZ006-009>011-018-025>026-312000-
   North Central Minnesota

CITY           SKY/WX    TMP DP  RH WIND       PRES   REMARKS
BAUDETTE       SUNNY      0  -8  69 N13       30.38F WCI -18
FLAG ISLAND    SUNNY     -2 -13  60 N13       30.43S WCI -21
INTL FALLS     SUNNY      5  -6  60 N13       30.34S WCI -12
WASKISH        SUNNY      7  -4  61 N9        30.35F WCI  -7
BIG FORK       SUNNY     12   0  57 N8        30.29S WCI   1
LONGVILLE      SUNNY     16   1  53 NW7       30.26F WCI   6
GRAND RAPIDS   SUNNY     16   0  48 N10       30.25R WCI   3
CRANE LAKE     MOSUNNY    7  -4  61 N7        30.34S WCI  -5
ORR            MOSUNNY   10  -4  52 NW6       30.26F WCI   1
COOK           SUNNY     10  -2  56 N5        30.28S WCI   2
WALKER         FAIR      12  -4  48 N9        30.27F WCI  -1
$$
MNZ012-019>021-037-312000-
   Northeast Minnesota

CITY           SKY/WX    TMP DP  RH WIND       PRES   REMARKS
DULUTH         MOSUNNY   19   4  51 N9        30.21S WCI   8
ELY            MOSUNNY   12   0  57 NW10G16   30.24F WCI  -1
HIBBING        SUNNY     16   1  51 N9        30.25S WCI   4
EVELETH        SUNNY     16   1  53 N7G16     30.26R WCI   6
DULUTH HARBOR  CLOUDY    25   9  50 N3        30.27F
TWO HARBORS    SUNNY     21   7  53 NW8       30.22S WCI  12
SILVER BAY     SUNNY     21   1  42 N7        30.22R WCI  13
GRAND MARAIS     N/A     16   0  49 N9        30.27S WCI   4
G MARAIS ARPRT SUNNY      7  -6  56 NW7       30.18S WCI  -5
$$
MNZ029>031-032-039>041-046>048-054>057-064-312000-
   West Central Minnesota

CITY           SKY/WX    TMP DP  RH WIND       PRES   REMARKS
FERGUS FALLS   CLOUDY    18   5  57 N8        30.29S WCI   7
WHEATON        CLOUDY    18  10  73 N14       30.29F WCI   4
MORRIS         CLOUDY    25  18  74 NE10      30.22F WCI  15
ALEXANDRIA     PTSUNNY   24  11  57 NE15      30.20F WCI  11
ELBOW LAKE     CLOUDY    22   9  58 NE9G17    30.23S WCI  11
WADENA         SUNNY     19  -4  35 NE15      30.23S WCI   5
GLENWOOD       PTSUNNY   27  16  63 NE14      30.20F WCI  15
APPLETON       CLOUDY    25  19  80 N9        30.22F WCI  15
BENSON         CLOUDY    25  19  80 E8        30.21F WCI  16
ORTONVILLE     CLOUDY    19  14  79 N16       30.23F WCI   5
MADISON        CLOUDY    25  21  86 N12       30.22F WCI  14
WILLMAR        CLOUDY    27  19  74 NE13      30.21F WCI  16
$$
MNZ033>034-036-042>043-049>051-058-059-312000-
   Central Minnesota

CITY           SKY/WX    TMP DP  RH WIND       PRES   REMARKS
ST CLOUD       MOSUNNY   27  15  61 NE8       30.21F WCI  19
SAUK CENTRE    FAIR      26  12  55 NE9       30.21S WCI  17
PAYNESVILLE    CLOUDY    23  16  73 N9        30.21F WCI  13
AITKIN         SUNNY     27   7  43 N10       30.21F WCI  17
PINE RIVER     SUNNY     18   5  57 N10G16    30.28S WCI   6
BRAINERD       SUNNY     23   5  46 N12       30.23F WCI  12
STAPLES        SUNNY     21  -6  30 NE9       30.23S WCI  11
LONG PRAIRIE   FAIR      25   9  50 N8        30.21S WCI  16
LITTLE FALLS   SUNNY     27  10  50 N5        30.22F WCI  21
LITCHFIELD     CLOUDY    27  25  93 NE10      30.20F WCI  17
BUFFALO        CLOUDY    27  19  72 N9        30.21F WCI  18
MAPLE LAKE     CLOUDY    28  22  79 N8        30.21F WCI  20
$$
MNZ037-044-045-052-053-312000-
   East Central Minnesota

CITY           SKY/WX    TMP DP  RH WIND       PRES   REMARKS
PRINCETON      CLOUDY    30  18  59 N8        30.22S WCI  23
MORA           SUNNY     28  12  50 N5        30.23S WCI  23
CAMBRIDGE      PTSUNNY   30  18  59 NE6       30.20S WCI  24
RUSH CITY      FAIR      29  16  59 N7        30.22R WCI  21
MOOSE LAKE     SUNNY     25   5  42 N10       30.20F WCI  15
HINCKLEY       FAIR      28  14  54 N9        30.22R WCI  20
CLOQUET        CLOUDY    19   5  53 N6G17     30.22S WCI  11
MCGREGOR       SUNNY     23   9  54 N13       30.22F WCI  11
$$
MNZ071>073-080-081-089-090-097-098-312000-
   Southwest Minnesota

CITY           SKY/WX    TMP DP  RH WIND       PRES   REMARKS
MONTEVIDEO     CLOUDY    25  23  93 E8        30.21F WCI  16
GRANITE FALLS  CLOUDY    26  23  90 N8        30.20F FOG     WCI  17
CANBY          CLOUDY    22  21  93 N14       30.20F FOG     WCI  10
MARSHALL       CLOUDY    25  19  80 NE12      30.18F WCI  14
REDWOOD FALLS  CLOUDY    27  23  85 N9        30.18F WCI  18
OLIVIA         CLOUDY    27  23  86 NE13      30.18F WCI  16
PIPESTONE      FOG       25  23  93 NE10      30.10F VSB 3/4 WCI  15
WINDOM         CLOUDY    27  25  93 N14       30.13F FOG     WCI  15
WORTHINGTON    CLOUDY    27  23  86 NE14      30.12S WCI  15
JACKSON        CLOUDY    28  27  93 NE15      30.12F FOG     WCI  17
TRACY          CLOUDY    26  25  97 NE12      30.15F FOG     WCI  15
SLAYTON        FOG       24  23  98 N3        30.13F VSB 1/4
$$
MNZ065>067-074>077-082>085-091>093-312000-
   South Central Minnesota

CITY           SKY/WX    TMP DP  RH WIND       PRES   REMARKS
MANKATO        CLOUDY    28  23  80 NE9       30.16F WCI  20
NEW ULM        CLOUDY    27  25  93 NE7       30.17F WCI  19
ST JAMES       CLOUDY    28  27  93 N12       30.16F FOG     WCI  18
FAIRMONT       CLOUDY    27  25  93 NE9       30.12F VSB 1/4 WCI  17
GLENCOE        CLOUDY    29  25  86 N8        30.18F WCI  21
FARIBAULT      CLOUDY    28  25  86 NE7       30.17F WCI  21
OWATONNA       CLOUDY    30  25  80 NE8       30.15F HAZE    WCI  23
WASECA         CLOUDY    30  27  86 NE9       30.16F FOG     WCI  22
ALBERT LEA     CLOUDY    34  28  80 E9        30.12F WCI  26
$$
MNZ078>079-086>088-094>096-312000-
   Southeast Minnesota

CITY           SKY/WX    TMP DP  RH WIND       PRES   REMARKS
ROCHESTER      CLOUDY    29  24  82 NE9       30.14F WCI  20
RED WING       CLOUDY    30  21  69 NE6       30.18S WCI  24
STANTON        CLOUDY    30  25  81 NE9       30.17S WCI  22
DODGE CENTER   CLOUDY    30  27  86 NE6       30.14S FOG     WCI  24
WINONA         CLOUDY    32  25  74 CALM      30.19S
AUSTIN         CLOUDY    30  27  86 NE9       30.13S WCI  22
PRESTON        CLOUDY    30  25  81 NE6       30.14F WCI  24
$$
ABBREVIATIONS USED IN REMARKS
   TC - TEMPERATURES IN CELSIUS
  WCI - WIND CHILL INDEX
   HX - HEAT INDEX
  VSB - VISIBILITY
$$



USA.gov is the U.S. government's official web portal to all federal, state and local government web resources and services.